COSMOS 2251 DEB, 40218

Orbit data source: Space-Track

COSMOS 2251 DEB, 40218 is space debris in LEO originally from a launch on Wed, 16 Jun 1993 UTC launched from the Plesetsk Missile And Space Complex (PKMTR). The debris from Iridium 33, an American commercial communications satellite, has been tracked extensively since its accidental collision with the defunct Russian satellite Cosmos 2251 in 2009. This event, occurring at high speed in low Earth orbit (LEO), generated thousands of pieces of space debris, significantly increasing the risk of further collisions. The Iridium 33 debris cloud has impacted space traffic management and orbital debris mitigation strategies, making it a subject of ongoing study in space situational awareness.

Loading next visibility...
Identifier
40218, 1993-036BUX
Orbit
LEO
Country
Flag of CISCIS
Related business
Manufacturer
Unknown
Mission
Spacecraft
Bus & Motor
Unknown
Mass
Unknown
Launch date (UTC)
1993-06-16 (33 years ago)
Launch vehicle
Unknown
Launch site
Plesetsk Missile And Space Complex (PKMTR)
Object type
Payload
Rocket body
Debris
Shape & HBR
Unknown shape, 0.1 m
Radar Cross Section
Small (<0.1 m²)

Expand to show TLE details & history
Last TLE update: 4 days ago

TLE from 4 days ago
0 COSMOS 2251 DEB
1 40218U 93036BUX 26235.09592975  .00000660  00000-0  20849-3 0  9998
2 40218  74.0308 139.1084 0016525 169.5346 190.6158 14.42105892625131
Epoch: 2026-08-23T02:18Z
TLE epoch observation values (Epoch: 2026-08-23T02:18:08.330Z)
Latitude
0.00004°
Longitude
133.17681°
Altitude
765.75 km
Speed
7.465 km/s
True Right ascension
09h 16m 26s
True Declination
0° 00' 00"
Sunlit
Object was in daylight at epoch
Visualization orbit readout
Latitude
Unknown
Longitude
Unknown
Altitude
Unknown
Speed
Unknown
Apparent Right ascension
Unknown
Apparent Declination
Unknown
Sunlit
N/A
Visualization observer readout
Local Sidereal Time
11:13:35
Azimuth
Unknown
Elevation
Unknown
Doppler factor
Unknown
Orbital elements
Apogee altitude
760.945 km
Perigee altitude
737.389 km
Semi-major axis
7,127.304 km
Eccentricity
0.00165
Inclination
74.0308°
RAAN
139.1084°
Arg. of periapsis
169.5346°
True anomaly
190.58099°
Mean anomaly
190.6158°
Eccentric anomaly
190.59839°
Mean motion
3.60708 °/min
Orbital period
99.8 mins
BSTAR
0.00020849
Loading maneuver chart data...
Computing Atmospheric mass density...

Documentation

Showing up to 5 results
|